Location: Bercimuel
(41.3983°N, 3.5711°W)
Time: 14:43:13
(UTC+00:00)

Cosmos 2333 Rocket - Pass Details

Date: 15 May 2026
Orbit: 840 x 862 km, 70.8° (Epoch: 10 June)

Event Time Altitude Azimuth Distance (km) Brightness Sun altitude
Rises 21:36:10 0° 335° (NNW) 3,422 6.8 -19.8°
Reaches altitude 10° 21:38:37 10° 335° (NNW) 2,486 5.8 -20.1°
Maximum altitude 21:44:21 84° 247° (WSW) 864 2.2 -20.7°
Enters shadow 21:46:30 40° 163° (SSE) 1,235 2.6 -21.0°
